User: anonymous   Login
Location: Davayat
(45.9471°N, 3.1105°E)
Time: 17:38:57
(UTC+00:00)
Language:

Spot 2 - Orbit

View from above orbital plane
View from above orbital plane
View from above satellite
View from above satellite

Ground track
Ground track

The orbit data is extracted from the following two-line orbital elements,

1 20436U 90005A   21127.93521861  .00000124  00000-0  29103-4 0  9993
2 20436  98.7482 140.9059 0145066 158.8809 201.8467 14.66672304641260
Epoch (UTC): 07 May 2021 22:26:42
Eccentricity: 0.0145066
inclination: 98.7482°
perigee height: 569 km
apogee height: 774 km
right ascension of ascending node: 140.9059°
argument of perigee: 158.8809°
revolutions per day: 14.66672304
mean anomaly at epoch: 201.8467°
orbit number at epoch: 64126

The dashed part of the orbit path shows where the satellite is in the earth's shadow,  

DLR